Tracking 23611 objects as of 18-Sep-2021
HD Live streaming from Space Station
objects crossing your sky now
Track INSPIRATION-4

STARLINK-1591

Track STARLINK-1591 now!
10-day predictions
STARLINK-1591 is classified as:


NORAD ID: 46045
Int'l Code: 2020-055U
Perigee: 553.9 km
Apogee: 554.8 km
Inclination: 53.1 °
Period: 95.6 minutes
Semi major axis: 6925 km
RCS: Unknown
Launch date: August 7, 2020
Source: United States (US)
Launch site: AIR FORCE EASTERN TEST RANGE (AFETR)
aabbcc
Your satellite tracking list
Your tracking list is empty




NASA's NSSDC Master Catalog

Two Line Element Set (TLE):
1 46045U 20055U   21260.72621642  .00000978  00000-0  84491-4 0  9996
2 46045  53.0532 261.7757 0000716  68.7547 291.3518 15.06400455 62596
Source of the keplerian elements: AFSPC